Avian Flight Center Webcam (1 minute updates)

Looking East from Avian at mid-field (Taxiway E) towards Runway 20-2 (Click for full size image). Image will update automatically every minute.

Bremerton Airport Live Webcam

KPWT 300555Z AUTO 03003KT 10SM CLR 04/02 A3032 RMK AO1 10110 20040 54000

Time-lapse movie of yesterday's webcam images

If you are unable to view the movie, download and install the DivX Codec here